When you browse on this site, cookies collect data to enhance your experience and personalize the content and advertising you see.
Visit our Privacy Policy to learn more. By continuing to use the site, you agree to this use of cookies and data.
  • Em Portugal
  • Lista de países
  • Para 7 dias
  • Temperatura da água
  • Mapa do tempo
  • Widgets de tempo
  • user-avatar
    Iniciar Sessão

    Previsão horária em Nzérékoré

    Hoje, 28 Fevereiro, Sexta-feira

    Tempo Temperatura Precipitação Vento Pressão Humidade
    00:00 +34°C° 0 mm 2 m/s 743 mmHg 18%
    01:00 +34°C° 0 mm 2 m/s 743 mmHg 15%
    02:00 +32°C° 0 mm 2 m/s 743 mmHg 31%
    03:00 +30°C° 0 mm 2 m/s 743 mmHg 46%
    04:00 +29°C° 0 mm 2 m/s 742 mmHg 61%
    05:00 +28°C° 0 mm 2 m/s 743 mmHg 65%
    06:00 +28°C° 0 mm 1 m/s 743 mmHg 69%
    07:00 +28°C° 0 mm 1 m/s 744 mmHg 74%
    08:00 +30°C° 0 mm 1 m/s 744 mmHg 68%
    09:00 +31°C° 0 mm 1 m/s 745 mmHg 62%
    10:00 +33°C° 0 mm 1 m/s 745 mmHg 56%
    11:00 +35°C° 0 mm 2 m/s 744 mmHg 51%
    12:00 +36°C° 0 mm 2 m/s 744 mmHg 45%
    13:00 +37°C° 0 mm 2 m/s 743 mmHg 40%
    14:00 +38°C° 0 mm 2 m/s 742 mmHg 32%
    15:00 +40°C° 0 mm 3 m/s 741 mmHg 24%
    16:00 +42°C° 0 mm 3 m/s 740 mmHg 16%
    17:00 +39°C° 0 mm 2 m/s 740 mmHg 17%
    18:00 +37°C° 0 mm 2 m/s 741 mmHg 18%
    19:00 +34°C° 0 mm 1 m/s 741 mmHg 19%
    20:00 +34°C° 0 mm 1 m/s 741 mmHg 20%
    21:00 +33°C° 0 mm 1 m/s 742 mmHg 22%
    22:00 +32°C° 0 mm 1 m/s 743 mmHg 23%
    23:00 +32°C° 0 mm 1 m/s 743 mmHg 24%

    Amanhã, 29 Fevereiro, Sábado

    Tempo Temperatura Precipitação Vento Pressão Humidade
    00:00 +32°C° 0 mm 1 m/s 742 mmHg 26%
    01:00 +29°C° 0 mm 0 m/s 742 mmHg 27%
    02:00 +30°C° 0 mm 1 m/s 742 mmHg 36%
    03:00 +29°C° 0 mm 2 m/s 742 mmHg 45%
    04:00 +27°C° 0 mm 3 m/s 742 mmHg 54%
    05:00 +27°C° 0 mm 3 m/s 742 mmHg 66%
    06:00 +26°C° 0 mm 2 m/s 742 mmHg 77%
    07:00 +26°C° 0 mm 2 m/s 743 mmHg 89%
    08:00 +29°C° 0 mm 2 m/s 743 mmHg 77%
    09:00 +31°C° 0 mm 3 m/s 744 mmHg 66%
    10:00 +35°C° 0 mm 3 m/s 744 mmHg 55%
    11:00 +39°C° 0 mm 2 m/s 744 mmHg 42%
    12:00 +43°C° 0 mm 1 m/s 743 mmHg 30%
    13:00 +44°C° 0 mm 0 m/s 742 mmHg 18%
    14:00 +46°C° 0 mm 1 m/s 741 mmHg 17%
    15:00 +45°C° 0 mm 1 m/s 740 mmHg 16%
    16:00 +45°C° 0 mm 1 m/s 739 mmHg 15%
    17:00 +42°C° 0 mm 1 m/s 739 mmHg 17%
    18:00 +40°C° 0 mm 1 m/s 739 mmHg 19%
    19:00 +35°C° 0 mm 0 m/s 739 mmHg 21%
    20:00 +36°C° 0 mm 1 m/s 740 mmHg 23%
    21:00 +35°C° 0 mm 1 m/s 741 mmHg 25%
    22:00 +34°C° 0 mm 1 m/s 741 mmHg 27%
    23:00 +34°C° 0 mm 2 m/s 741 mmHg 38%

    Depois de amanhã, 1 Março, Domingo

    Tempo Temperatura Precipitação Vento Pressão Humidade
    00:00 +33°C° 0 mm 4 m/s 741 mmHg 48%
    01:00 +32°C° 0 mm 5 m/s 741 mmHg 59%
    02:00 +30°C° 0 mm 5 m/s 741 mmHg 65%
    03:00 +30°C° 0 mm 5 m/s 742 mmHg 71%
    04:00 +29°C° 0 mm 4 m/s 742 mmHg 78%
    05:00 +29°C° 0 mm 4 m/s 742 mmHg 77%
    06:00 +29°C° 0 mm 4 m/s 743 mmHg 77%
    07:00 +29°C° 0 mm 3 m/s 743 mmHg 76%
    08:00 +31°C° 0 mm 3 m/s 744 mmHg 70%
    09:00 +33°C° 0 mm 4 m/s 744 mmHg 64%
    10:00 +34°C° 0 mm 4 m/s 745 mmHg 58%
    11:00 +35°C° 0 mm 3 m/s 744 mmHg 55%
    12:00 +36°C° 0 mm 3 m/s 743 mmHg 51%
    13:00 +37°C° 0 mm 3 m/s 743 mmHg 48%
    14:00 +38°C° 0 mm 3 m/s 742 mmHg 44%
    15:00 +39°C° 0 mm 3 m/s 741 mmHg 39%
    16:00 +40°C° 0 mm 3 m/s 740 mmHg 34%
    17:00 +38°C° 0.1 mm 2 m/s 741 mmHg 39%
    18:00 +36°C° 0.1 mm 1 m/s 741 mmHg 43%
    19:00 +34°C° 0.1 mm 1 m/s 741 mmHg 47%
    20:00 +34°C° 0.1 mm 2 m/s 742 mmHg 50%
    21:00 +33°C° 0.1 mm 3 m/s 743 mmHg 53%
    22:00 +32°C° 0.1 mm 4 m/s 743 mmHg 56%
    23:00 +32°C° 0 mm 4 m/s 743 mmHg 61%

    2 Março, Segunda-feira

    Tempo Temperatura Precipitação Vento Pressão Humidade
    00:00 +30°C° 0 mm 4 m/s 743 mmHg 66%
    01:00 +29°C° 0 mm 5 m/s 743 mmHg 71%
    02:00 +29°C° 0 mm 4 m/s 743 mmHg 73%
    03:00 +28°C° 0 mm 4 m/s 743 mmHg 76%
    04:00 +28°C° 0 mm 3 m/s 743 mmHg 78%
    05:00 +28°C° 0 mm 3 m/s 743 mmHg 80%
    06:00 +27°C° 0 mm 2 m/s 744 mmHg 82%
    07:00 +27°C° 0 mm 1 m/s 744 mmHg 85%
    08:00 +29°C° 0 mm 2 m/s 745 mmHg 74%
    09:00 +31°C° 0 mm 2 m/s 745 mmHg 63%
    10:00 +35°C° 0 mm 3 m/s 746 mmHg 52%
    11:00 +37°C° 0 mm 2 m/s 745 mmHg 46%
    12:00 +40°C° 0 mm 2 m/s 744 mmHg 39%
    13:00 +42°C° 0 mm 1 m/s 743 mmHg 32%
    14:00 +41°C° 0 mm 1 m/s 743 mmHg 32%
    15:00 +41°C° 0 mm 2 m/s 742 mmHg 31%
    16:00 +40°C° 0 mm 2 m/s 741 mmHg 31%
    17:00 +39°C° 0 mm 2 m/s 741 mmHg 34%
    18:00 +38°C° 0 mm 2 m/s 741 mmHg 37%
    19:00 +36°C° 0 mm 2 m/s 741 mmHg 40%
    20:00 +35°C° 0.1 mm 3 m/s 742 mmHg 45%
    21:00 +34°C° 0.1 mm 4 m/s 743 mmHg 49%
    22:00 +33°C° 0.1 mm 4 m/s 744 mmHg 54%
    23:00 +32°C° 0 mm 4 m/s 744 mmHg 59%

    3 Março, Terça-feira

    Tempo Temperatura Precipitação Vento Pressão Humidade
    00:00 +29°C° 0 mm 4 m/s 744 mmHg 63%
    01:00 +28°C° 0 mm 4 m/s 743 mmHg 68%
    02:00 +28°C° 0 mm 4 m/s 743 mmHg 71%
    03:00 +28°C° 0 mm 4 m/s 743 mmHg 73%
    04:00 +27°C° 0 mm 3 m/s 743 mmHg 76%
    05:00 +27°C° 0.1 mm 2 m/s 743 mmHg 77%
    06:00 +27°C° 0.1 mm 1 m/s 744 mmHg 79%
    07:00 +25°C° 0.1 mm 0 m/s 744 mmHg 80%
    08:00 +29°C° 0.6 mm 1 m/s 745 mmHg 71%
    09:00 +31°C° 0.6 mm 2 m/s 746 mmHg 62%
    10:00 +35°C° 0.6 mm 3 m/s 746 mmHg 53%
    11:00 +38°C° 0 mm 2 m/s 745 mmHg 44%
    12:00 +41°C° 0 mm 1 m/s 744 mmHg 35%
    13:00 +44°C° 0 mm 1 m/s 743 mmHg 27%
    14:00 +43°C° 0 mm 1 m/s 742 mmHg 26%
    15:00 +42°C° 0 mm 1 m/s 742 mmHg 25%
    16:00 +42°C° 0 mm 1 m/s 741 mmHg 24%
    17:00 +40°C° 0 mm 2 m/s 741 mmHg 27%
    18:00 +39°C° 0 mm 2 m/s 741 mmHg 30%
    19:00 +37°C° 0 mm 3 m/s 741 mmHg 33%
    20:00 +36°C° 0 mm 3 m/s 742 mmHg 38%
    21:00 +35°C° 0 mm 3 m/s 742 mmHg 43%
    22:00 +34°C° 0 mm 3 m/s 743 mmHg 47%
    23:00 +33°C° 0 mm 3 m/s 743 mmHg 50%

    4 Março, Quarta-feira

    Tempo Temperatura Precipitação Vento Pressão Humidade
    00:00 +33°C° 0 mm 3 m/s 743 mmHg 53%
    01:00 +31°C° 0 mm 3 m/s 743 mmHg 56%
    02:00 +30°C° 0 mm 3 m/s 743 mmHg 60%
    03:00 +29°C° 0 mm 3 m/s 743 mmHg 65%
    04:00 +29°C° 0 mm 2 m/s 743 mmHg 69%
    05:00 +29°C° 0 mm 2 m/s 743 mmHg 71%
    06:00 +29°C° 0 mm 2 m/s 744 mmHg 73%
    07:00 +29°C° 0 mm 2 m/s 744 mmHg 75%
    08:00 +31°C° 0 mm 2 m/s 745 mmHg 67%
    09:00 +34°C° 0 mm 3 m/s 745 mmHg 59%
    10:00 +36°C° 0 mm 3 m/s 746 mmHg 51%
    11:00 +38°C° 0 mm 2 m/s 745 mmHg 43%
    12:00 +41°C° 0 mm 2 m/s 744 mmHg 36%
    13:00 +43°C° 0 mm 1 m/s 743 mmHg 29%
    14:00 +42°C° 0 mm 1 m/s 743 mmHg 30%
    15:00 +41°C° 0 mm 2 m/s 742 mmHg 31%
    16:00 +40°C° 0 mm 2 m/s 741 mmHg 32%
    17:00 +38°C° 0.2 mm 3 m/s 741 mmHg 37%
    18:00 +36°C° 0.2 mm 3 m/s 741 mmHg 41%
    19:00 +35°C° 0.2 mm 3 m/s 741 mmHg 45%
    20:00 +34°C° 0 mm 3 m/s 742 mmHg 46%
    21:00 +34°C° 0 mm 3 m/s 742 mmHg 47%
    22:00 +34°C° 0 mm 3 m/s 743 mmHg 48%
    23:00 +33°C° 0 mm 3 m/s 743 mmHg 51%
    Mostrar mais